When you browse on this site, cookies collect data to enhance your experience and personalize the content and advertising you see.
Visit our Privacy Policy to learn more. By continuing to use the site, you agree to this use of cookies and data.
  • In Czech Republic
  • List of Countries
  • For 7 days
  • Water Temperature
  • Satellite Maps
  • Weather Map
  • Weather Widgets
  • user-avatar
    Login

    Hourly Weather Kunming

    Today, 18 January, Friday

    Time Temperature Precipitation Wind Pressure Humidity
    00:00 +6°C° 0 mm 1 mps 589 mmHg 88%
    01:00 +5°C° 0 mm 1 mps 589 mmHg 91%
    02:00 +5°C° 0 mm 1 mps 589 mmHg 92%
    03:00 +5°C° 0 mm 1 mps 588 mmHg 93%
    04:00 +4°C° 0 mm 1 mps 588 mmHg 94%
    05:00 +4°C° 0 mm 1 mps 588 mmHg 95%
    06:00 +4°C° 0 mm 1 mps 589 mmHg 96%
    07:00 +6°C° 0 mm 1 mps 590 mmHg 97%
    08:00 +7°C° 0 mm 2 mps 590 mmHg 91%
    09:00 +8°C° 0 mm 2 mps 591 mmHg 84%
    10:00 +9°C° 0 mm 3 mps 591 mmHg 78%
    11:00 +11°C° 0 mm 4 mps 591 mmHg 71%
    12:00 +12°C° 0 mm 4 mps 591 mmHg 63%
    13:00 +14°C° 0 mm 5 mps 591 mmHg 56%
    14:00 +14°C° 0 mm 5 mps 591 mmHg 54%
    15:00 +14°C° 0 mm 5 mps 591 mmHg 53%
    16:00 +14°C° 0 mm 5 mps 590 mmHg 52%
    17:00 +12°C° 0 mm 4 mps 590 mmHg 61%
    18:00 +10°C° 0 mm 3 mps 589 mmHg 71%
    19:00 +8°C° 0 mm 2 mps 589 mmHg 80%
    20:00 +8°C° 0 mm 2 mps 589 mmHg 83%
    21:00 +8°C° 0 mm 1 mps 589 mmHg 87%
    22:00 +8°C° 0 mm 1 mps 589 mmHg 90%
    23:00 +7°C° 0 mm 1 mps 589 mmHg 91%

    Tomorrow, 19 January, Saturday

    Time Temperature Precipitation Wind Pressure Humidity
    00:00 +7°C° 0 mm 1 mps 589 mmHg 93%
    01:00 +7°C° 0 mm 1 mps 589 mmHg 94%
    02:00 +7°C° 0 mm 1 mps 589 mmHg 95%
    03:00 +6°C° 0 mm 1 mps 589 mmHg 96%
    04:00 +6°C° 0 mm 1 mps 588 mmHg 97%
    05:00 +7°C° 0 mm 1 mps 589 mmHg 97%
    06:00 +7°C° 0 mm 1 mps 589 mmHg 97%
    07:00 +8°C° 0 mm 1 mps 590 mmHg 96%
    08:00 +7°C° 0 mm 2 mps 590 mmHg 93%
    09:00 +8°C° 0 mm 2 mps 590 mmHg 90%
    10:00 +9°C° 0 mm 2 mps 591 mmHg 86%
    11:00 +10°C° 0 mm 2 mps 591 mmHg 79%
    12:00 +11°C° 0 mm 3 mps 590 mmHg 71%
    13:00 +12°C° 0 mm 4 mps 590 mmHg 63%
    14:00 +13°C° 0 mm 4 mps 590 mmHg 59%
    15:00 +13°C° 0 mm 4 mps 590 mmHg 54%
    16:00 +14°C° 0 mm 5 mps 590 mmHg 49%
    17:00 +12°C° 0 mm 4 mps 589 mmHg 59%
    18:00 +10°C° 0 mm 3 mps 589 mmHg 69%
    19:00 +8°C° 0 mm 2 mps 588 mmHg 78%
    20:00 +7°C° 0 mm 2 mps 588 mmHg 81%
    21:00 +6°C° 0 mm 2 mps 589 mmHg 84%
    22:00 +7°C° 0 mm 1 mps 589 mmHg 87%
    23:00 +6°C° 0 mm 1 mps 589 mmHg 88%

    Day after tomorrow, 20 January, Sunday

    Time Temperature Precipitation Wind Pressure Humidity
    00:00 +6°C° 0 mm 1 mps 588 mmHg 89%
    01:00 +5°C° 0 mm 0 mps 588 mmHg 89%
    02:00 +4°C° 0 mm 0 mps 588 mmHg 90%
    03:00 +4°C° 0 mm 0 mps 588 mmHg 91%
    04:00 +4°C° 0 mm 0 mps 588 mmHg 92%
    05:00 +3°C° 0 mm 0 mps 588 mmHg 92%
    06:00 +3°C° 0 mm 0 mps 588 mmHg 92%
    07:00 +3°C° 0 mm 0 mps 589 mmHg 93%
    08:00 +7°C° 0 mm 1 mps 590 mmHg 83%
    09:00 +10°C° 0 mm 1 mps 592 mmHg 73%
    10:00 +12°C° 0 mm 1 mps 593 mmHg 64%
    11:00 +13°C° 0 mm 2 mps 593 mmHg 56%
    12:00 +13°C° 0 mm 3 mps 593 mmHg 49%
    13:00 +14°C° 0 mm 4 mps 592 mmHg 42%
    14:00 +14°C° 0 mm 4 mps 592 mmHg 44%
    15:00 +14°C° 0 mm 4 mps 591 mmHg 46%
    16:00 +14°C° 0 mm 4 mps 590 mmHg 48%
    17:00 +12°C° 0.1 mm 3 mps 590 mmHg 56%
    18:00 +10°C° 0.1 mm 2 mps 590 mmHg 64%
    19:00 +9°C° 0.1 mm 1 mps 589 mmHg 72%
    20:00 +8°C° 0 mm 1 mps 590 mmHg 75%
    21:00 +8°C° 0 mm 1 mps 590 mmHg 78%
    22:00 +7°C° 0 mm 1 mps 590 mmHg 81%
    23:00 +7°C° 0 mm 1 mps 590 mmHg 83%

    21 January, Monday

    Time Temperature Precipitation Wind Pressure Humidity
    00:00 +7°C° 0 mm 1 mps 590 mmHg 85%
    01:00 +7°C° 0 mm 1 mps 590 mmHg 86%
    02:00 +6°C° 0 mm 1 mps 590 mmHg 88%
    03:00 +6°C° 0 mm 1 mps 589 mmHg 89%
    04:00 +6°C° 0 mm 1 mps 589 mmHg 90%
    05:00 +6°C° 0 mm 1 mps 590 mmHg 91%
    06:00 +5°C° 0 mm 1 mps 590 mmHg 92%
    07:00 +5°C° 0 mm 1 mps 590 mmHg 93%
    08:00 +7°C° 0.1 mm 1 mps 591 mmHg 86%
    09:00 +10°C° 0.1 mm 1 mps 593 mmHg 79%
    10:00 +12°C° 0.1 mm 2 mps 594 mmHg 72%
    11:00 +13°C° 0.1 mm 2 mps 594 mmHg 64%
    12:00 +13°C° 0.1 mm 3 mps 594 mmHg 56%
    13:00 +15°C° 0.1 mm 4 mps 593 mmHg 48%
    14:00 +15°C° 0 mm 4 mps 593 mmHg 48%
    15:00 +14°C° 0 mm 4 mps 592 mmHg 49%
    16:00 +14°C° 0 mm 3 mps 592 mmHg 49%
    17:00 +12°C° 0 mm 3 mps 591 mmHg 57%
    18:00 +10°C° 0 mm 2 mps 591 mmHg 66%
    19:00 +8°C° 0 mm 2 mps 591 mmHg 75%
    20:00 +8°C° 0 mm 2 mps 591 mmHg 79%
    21:00 +8°C° 0 mm 1 mps 591 mmHg 82%
    22:00 +8°C° 0 mm 1 mps 591 mmHg 86%
    23:00 +7°C° 0 mm 1 mps 591 mmHg 88%

    22 January, Tuesday

    Time Temperature Precipitation Wind Pressure Humidity
    00:00 +7°C° 0 mm 1 mps 590 mmHg 91%
    01:00 +6°C° 0 mm 1 mps 590 mmHg 93%
    02:00 +6°C° 0 mm 1 mps 590 mmHg 94%
    03:00 +6°C° 0 mm 1 mps 590 mmHg 94%
    04:00 +6°C° 0 mm 1 mps 590 mmHg 95%
    05:00 +6°C° 0 mm 1 mps 590 mmHg 94%
    06:00 +7°C° 0 mm 1 mps 591 mmHg 93%
    07:00 +7°C° 0 mm 1 mps 591 mmHg 93%
    08:00 +8°C° 0 mm 1 mps 592 mmHg 89%
    09:00 +9°C° 0 mm 1 mps 593 mmHg 85%
    10:00 +10°C° 0 mm 2 mps 594 mmHg 82%
    11:00 +10°C° 0.1 mm 2 mps 593 mmHg 76%
    12:00 +11°C° 0.1 mm 3 mps 593 mmHg 71%
    13:00 +12°C° 0.1 mm 3 mps 592 mmHg 65%
    14:00 +13°C° 0.1 mm 3 mps 592 mmHg 63%
    15:00 +13°C° 0.1 mm 3 mps 591 mmHg 61%
    16:00 +14°C° 0.1 mm 4 mps 591 mmHg 58%
    17:00 +12°C° 0 mm 3 mps 591 mmHg 68%
    18:00 +10°C° 0 mm 3 mps 590 mmHg 78%
    19:00 +8°C° 0 mm 2 mps 590 mmHg 89%
    20:00 +7°C° 0 mm 2 mps 590 mmHg 90%
    21:00 +7°C° 0 mm 2 mps 590 mmHg 92%
    22:00 +6°C° 0 mm 2 mps 590 mmHg 94%
    23:00 +7°C° 0 mm 1 mps 589 mmHg 94%

    23 January, Wednesday

    Time Temperature Precipitation Wind Pressure Humidity
    00:00 +7°C° 0 mm 1 mps 589 mmHg 95%
    01:00 +7°C° 0 mm 1 mps 589 mmHg 95%
    02:00 +7°C° 0 mm 1 mps 589 mmHg 96%
    03:00 +6°C° 0 mm 1 mps 588 mmHg 97%
    04:00 +6°C° 0 mm 1 mps 588 mmHg 97%
    05:00 +6°C° 0 mm 2 mps 589 mmHg 97%
    06:00 +6°C° 0 mm 2 mps 589 mmHg 97%
    07:00 +7°C° 0 mm 2 mps 590 mmHg 97%
    08:00 +7°C° 0 mm 2 mps 590 mmHg 93%
    09:00 +8°C° 0 mm 3 mps 590 mmHg 90%
    10:00 +9°C° 0 mm 3 mps 591 mmHg 86%
    11:00 +10°C° 0 mm 4 mps 591 mmHg 75%
    12:00 +12°C° 0 mm 5 mps 591 mmHg 63%
    13:00 +14°C° 0 mm 5 mps 591 mmHg 51%
    14:00 +14°C° 0 mm 6 mps 590 mmHg 47%
    15:00 +15°C° 0 mm 6 mps 590 mmHg 43%
    16:00 +15°C° 0 mm 6 mps 590 mmHg 39%
    17:00 +13°C° 0 mm 5 mps 589 mmHg 48%
    18:00 +11°C° 0 mm 4 mps 589 mmHg 57%
    19:00 +8°C° 0 mm 2 mps 588 mmHg 67%
    20:00 +8°C° 0 mm 2 mps 588 mmHg 73%
    21:00 +7°C° 0 mm 2 mps 588 mmHg 79%
    22:00 +6°C° 0 mm 2 mps 588 mmHg 85%
    23:00 +6°C° 0 mm 2 mps 588 mmHg 88%
    Show more